Location: Newark
(44.3681°N, 100.3364°W)
Time: 09:15:15
(UTC+00:00)

Courier 1B Rocket - All Passes

Search period start: 17 February 2020 00:00
Search period end: 27 February 2020 00:00
Orbit: 920 x 1202 km, 28.2° (Epoch: 16 February)

Date Brightness Start Highest point End Pass type
(mag) Time Alt. Az. Time Alt. Az. Time Alt. Az.
17 Feb - 09:39:42 10° SSW 09:44:11 19° S 09:48:53 10° SE visible
17 Feb - 11:31:39 10° SW 11:36:39 21° S 11:41:53 10° SE visible
17 Feb - 13:25:38 10° SW 13:29:08 14° SSW 13:32:42 10° S daylight
18 Feb - 08:39:43 10° SSW 08:43:29 16° SSE 08:47:22 10° SE visible
18 Feb - 10:30:57 10° SW 10:35:50 21° S 10:40:57 10° SE visible
18 Feb - 12:24:06 10° SW 12:28:19 17° SSW 12:32:41 10° SSE visible
19 Feb - 07:40:21 10° S 07:42:49 12° SSE 07:45:20 10° SE night (unlit)
19 Feb - 09:30:28 10° SW 09:35:04 20° S 09:39:53 10° SE visible
19 Feb - 11:22:59 10° SW 11:27:31 18° S 11:32:14 10° SSE visible
20 Feb - 08:30:13 10° SSW 08:34:21 18° S 08:38:38 10° SE night (unlit)
20 Feb - 10:22:08 10° SW 10:26:44 19° S 10:31:33 10° SE visible
20 Feb - 12:16:14 10° SW 12:19:09 13° SSW 12:22:07 10° S visible
21 Feb - 07:30:16 10° SSW 07:33:40 15° SSE 07:37:10 10° SE night (unlit)
21 Feb - 09:21:28 10° SW 09:25:58 20° S 09:30:40 10° SE visible
21 Feb - 11:14:39 10° SW 11:18:23 15° SSW 11:22:14 10° SSE visible
22 Feb - 06:30:57 10° S 06:33:02 12° SSE 06:35:10 10° SE night (unlit)
22 Feb - 08:21:00 10° SW 08:25:16 19° S 08:29:40 10° SE night (unlit)
22 Feb - 10:13:32 10° SW 10:17:38 17° S 10:21:53 10° SSE visible
23 Feb - 07:20:44 10° SSW 07:24:35 17° S 07:28:31 10° SE night (unlit)
23 Feb - 09:12:41 10° SW 09:16:54 18° S 09:21:17 10° SE visible
23 Feb - 11:07:07 10° SW 11:09:14 12° SSW 11:11:24 10° S visible
24 Feb - 06:20:44 10° SSW 06:23:56 14° SSE 06:27:10 10° SE night (unlit)
24 Feb - 08:12:01 10° SW 08:16:12 18° S 08:20:31 10° SE night (unlit)
24 Feb - 10:05:21 10° SW 10:08:32 14° SSW 10:11:48 10° SSE visible
25 Feb - 05:21:22 10° S 05:23:19 11° SSE 05:25:17 10° SE night (unlit)
25 Feb - 07:11:30 10° SW 07:15:31 18° S 07:19:37 10° SE night (unlit)
25 Feb - 09:04:08 10° SW 09:07:50 16° S 09:11:38 10° SSE night (unlit)
26 Feb - 06:11:09 10° SSW 06:14:52 16° S 06:18:36 10° SE night (unlit)
26 Feb - 08:03:13 10° SW 08:07:09 17° S 08:11:10 10° SSE night (unlit)
26 Feb - 09:58:26 10° SSW 09:59:25 10° SSW 10:00:24 10° S visible
